Location: Sungai Bunut
(2.6333°N, 113.7333°E)
Time: 16:24:16
(UTC+00:00)

Vanguard 3 - Pass Details

Date: 10 December 2023
Orbit: 508 x 3239 km, 33.4° (Epoch: 28 February)

Event Time Altitude Azimuth Distance (km) Brightness Sun altitude
Rises 19:48:36 0° 317° (NW) 3,169 - -35.1°
Reaches altitude 10° 19:51:29 10° 326° (NNW) 1,995 - -34.5°
Maximum altitude 19:55:21 33° 32° (NNE) 906 - -33.6°
Exits shadow 19:58:00 14° 92° (E) 1,452 9.1 -33.0°
Drops below altitude 10° 19:58:42 10° 98° (E) 1,707 9.6 -32.9°
Sets 20:00:58 0° 109° (ESE) 2,629 10.9 -32.4°
